This is the latest recevied weather packets stored in our database for station/object K5IDL. If no packets are shown the sender has not sent any weather packets the latest 10 day(s).
| Time | Temp. | Humidity | Pressure | Rain* | Wind** | Luminosity | Snow |
|---|---|---|---|---|---|---|---|
| 1777857371 | 24.44° C | 37% | 1016.3 hPa | 0 mm | - | 1 W/m² | - |
| 1777857067 | 25° C | 36% | 1016.2 hPa | 0 mm | - | 1 W/m² | - |
| 1777856762 | 25° C | 35% | 1016.3 hPa | 0 mm | - | 2 W/m² | - |
| 1777856458 | 25° C | 36% | 1016.4 hPa | 0 mm | - | 3 W/m² | - |
| 1777856155 | 25° C | 36% | 1016.1 hPa | 0 mm | - | 4 W/m² | - |
| 1777855852 | 25° C | 36% | 1016.3 hPa | 0 mm | - | 5 W/m² | - |
| 1777855550 | 25.56° C | 35% | 1016.2 hPa | 0 mm | - | 6 W/m² | - |
| 1777855247 | 25.56° C | 34% | 1016.3 hPa | 0 mm | - | 7 W/m² | - |
| 1777854943 | 25.56° C | 35% | 1016.3 hPa | 0 mm | - | 9 W/m² | - |
| 1777854640 | 26.11° C | 35% | 1016.2 hPa | 0 mm | - | 12 W/m² | - |
| 1777854337 | 26.11° C | 35% | 1016.3 hPa | 0 mm | - | 14 W/m² | - |
| 1777854035 | 26.11° C | 34% | 1016.3 hPa | 0 mm | - | 15 W/m² | - |
| 1777853732 | 26.11° C | 33% | 1016.3 hPa | 0 mm | - | 17 W/m² | - |
| 1777853428 | 26.11° C | 34% | 1016.4 hPa | 0 mm | - | 18 W/m² | - |
| 1777853126 | 26.67° C | 34% | 1016.5 hPa | 0 mm | - | 19 W/m² | - |
| 1777852823 | 26.67° C | 33% | 1016.4 hPa | 0 mm | - | 20 W/m² | - |
| 1777852521 | 27.22° C | 32% | 1016.5 hPa | 0 mm | - | 23 W/m² | - |
| 1777852218 | 26.67° C | 32% | 1016.3 hPa | 0 mm | - | 43 W/m² | - |
| 1777851916 | 27.22° C | 31% | 1016.8 hPa | 0 mm | - | 69 W/m² | - |
| 1777851614 | 27.22° C | 32% | 1016.3 hPa | 0 mm | - | 49 W/m² | - |
| 1777851309 | 27.78° C | 31% | 1016.7 hPa | 0 mm | - | 34 W/m² | - |
| 1777851006 | 27.78° C | 31% | 1016.6 hPa | 0 mm | - | 31 W/m² | - |
| 1777850703 | 27.78° C | 31% | 1016.5 hPa | 0 mm | - | 26 W/m² | - |
| 1777850401 | 27.22° C | 31% | 1016.7 hPa | 0 mm | - | 25 W/m² | - |
| 1777850098 | 27.22° C | 31% | 1016.7 hPa | 0 mm | - | 23 W/m² | - |
* Rain latest hour (hover to see other rain measurements)
** Current wind speed in m/s (hover to see current wind gust speed)